Temp
80 84 84 82 86 86 84 82 77 77 76 73 72 71 66 68 73 70 70 66 67 72
80 82 81 81 82 84 83 80 76 75 73 72 70 69 67 71 69 68 67 66 66 69
80 81 80 79 79 77 76 76 71 72 70 70 66 64 64 64 66 66 68 68 63 64
81 79 74 69 70 71 71 71 70 68 66 64 64 62 64 63 64 64 63 64 63 61
75 72 67 66 66 65 65 64 64 64 60 59 60 58 63 63 63 60 62 61 62 61
64 63 62 61 60 61 57 58 58 58 59 56 56 54 57 59 58 59 59 58 59 59
61 60 59 58 57 55 55 55 54 54 54 54 54 54 57 59 57 60 57 59 58 58
59 59 58 56 55 54 53 52 53 52 52 54 54 55 54 57 55 57 55 56 59 55
55 54 52 52 53 51 51 51 50 50 51 51 57 49 52 55 58 57 57 56 57 59
52 49 49 50 50 48 48 50 48 49 50 49 50 47 48 52 58 56 55 54 55 58
49 48 49 48 48 48 49 49 48 50 50 49 49 46 46 50 54 54 54 55 55 55
50 47 47 46 47 49 49 48 49 49 50 50 50 45 46 53 55 54 55 54 50 53
49 48 45 45 46 47 48 48 49 49 54 50 52 43 45 54 59 57 57 56 53 41
45 44 44 44 45 46 47 50 52 52 53 53 50 48 43 44 60 59 57 59 57 53
MSLP
1002.21 1002.63 1002.79 1003.40 1004.09 1004.89 1006.00 1007.34 1008.81 1009.53 1010.63 1011.77 1012.91 1013.28 1013.61 1014.20 1014.43 1015.21 1015.21 1015.34 1015.29 1015.06
1001.97 1002.25 1002.23 1003.54 1003.89 1004.77 1006.06 1007.56 1008.82 1009.74 1010.68 1011.77 1013.04 1013.38 1014.08 1014.63 1015.17 1015.57 1015.73 1015.58 1016.06 1015.64
1001.60 1002.02 1003.01 1003.70 1004.40 1005.30 1006.59 1008.07 1009.67 1010.31 1011.40 1012.20 1012.97 1013.76 1014.55 1015.34 1015.74 1016.12 1015.59 1016.22 1016.60 1016.67
1001.08 1002.99 1004.08 1004.87 1005.22 1006.34 1007.16 1008.86 1010.11 1011.14 1011.98 1013.11 1014.05 1014.40 1015.32 1015.38 1016.22 1016.00 1016.54 1017.03 1017.32 1017.62
1002.71 1003.93 1004.30 1005.43 1006.03 1008.26 1008.67 1009.99 1010.33 1011.94 1012.85 1014.01 1014.68 1015.21 1016.56 1016.34 1016.10 1016.81 1016.92 1016.78 1017.97 1018.34
1003.79 1004.90 1004.63 1006.06 1007.68 1008.78 1010.13 1011.17 1011.77 1012.38 1013.64 1014.88 1015.28 1015.03 1017.90 1017.22 1017.46 1017.47 1017.41 1017.70 1018.24 1018.60
1004.00 1004.20 1005.36 1007.12 1008.55 1009.76 1010.53 1010.33 1012.15 1013.34 1014.80 1015.31 1015.85 1015.96 1017.34 1018.48 1018.41 1018.13 1017.60 1018.10 1018.79 1019.17
1004.08 1005.05 1006.49 1008.03 1009.26 1010.18 1011.69 1012.51 1013.44 1013.96 1014.04 1016.59 1017.13 1016.76 1017.96 1018.86 1018.77 1017.97 1018.17 1018.39 1018.84 1020.08
1005.40 1007.21 1008.26 1008.95 1009.65 1011.06 1012.65 1013.42 1014.05 1015.81 1016.16 1016.44 1017.10 1017.89 1018.47 1018.82 1018.74 1017.91 1018.07 1018.38 1019.31 1019.76
1006.82 1007.66 1008.59 1009.56 1010.72 1012.12 1013.55 1014.86 1015.49 1016.62 1016.51 1017.25 1018.57 1019.23 1019.43 1018.91 1018.71 1017.99 1018.35 1019.46 1019.88 1019.84
1007.29 1008.33 1009.78 1010.82 1011.62 1012.91 1014.01 1014.66 1015.91 1016.94 1018.16 1018.79 1019.94 1019.93 1019.67 1019.07 1019.02 1018.83 1019.32 1019.88 1020.38 1020.84
1008.27 1009.40 1010.66 1011.92 1012.85 1013.68 1014.33 1015.70 1016.44 1017.52 1019.32 1019.58 1019.98 1020.16 1019.84 1019.12 1019.40 1019.11 1019.93 1020.64 1021.57 1021.83
1009.26 1010.42 1011.99 1012.85 1013.73 1014.53 1015.05 1016.09 1016.95 1018.51 1019.31 1020.05 1020.45 1020.35 1019.69 1019.64 1019.08 1019.31 1020.37 1020.72 1021.56 1023.07
1010.81 1011.67 1012.73 1013.69 1014.63 1015.05 1015.96 1016.71 1017.29 1018.33 1019.65 1020.22 1020.44 1020.50 1020.49 1020.09 1019.56 1020.02 1020.29 1020.54 1021.43 1022.52
Wind_Speed
18 14 12 14 14 13 12 12 15 13 13 14 13 12 9 6 8 7 8 9 8 5
18 17 14 15 14 12 13 13 15 16 16 16 14 12 8 8 9 8 7 9 7 6
18 15 15 14 16 16 15 16 14 16 15 16 15 13 11 9 9 8 8 7 8 6
16 15 13 10 12 13 15 17 17 16 17 14 13 10 8 12 10 11 10 9 7 6
11 14 14 14 17 13 15 13 18 17 15 13 13 10 9 9 12 11 10 11 7 6
14 14 17 16 16 15 15 13 15 16 15 13 12 15 7 10 10 11 11 10 8 7
14 16 17 16 16 15 15 17 15 16 13 13 11 14 11 9 8 10 11 12 10 9
16 16 16 17 16 16 14 12 12 15 18 12 10 11 12 10 8 12 13 10 9 9
17 16 16 17 19 18 16 16 16 8 13 14 9 12 9 10 9 12 11 10 7 5
17 17 17 18 20 19 16 13 14 12 13 15 11 9 7 9 11 12 12 9 7 7
17 19 18 17 18 18 17 15 15 15 13 13 9 10 7 12 12 12 11 10 9 8
17 18 17 16 15 16 17 15 14 15 12 14 12 8 5 11 10 11 11 10 11 10
17 18 16 15 14 14 15 14 14 13 12 13 11 6 8 6 7 9 7 7 9 14
16 17 18 16 13 15 14 14 16 17 13 12 11 11 13 14 8 7 6 6 6 8
Wind_Direction
181 178 163 171 170 169 166 161 152 141 132 126 123 117 109 112 104 99 83 71 50 53
176 180 158 177 152 157 159 141 148 140 134 128 125 116 106 108 106 101 96 80 62 43
173 168 154 156 165 149 138 140 140 133 128 125 118 112 112 118 103 107 78 73 60 31
150 162 137 123 123 135 129 136 135 126 117 114 113 95 104 105 115 90 84 70 59 58
142 137 124 121 109 119 118 125 121 119 107 103 99 93 80 109 100 99 93 89 56 31
127 130 109 104 111 113 109 112 110 101 109 115 113 91 114 90 103 103 99 88 70 37
131 114 110 114 111 114 113 121 111 109 105 108 112 109 108 117 115 116 92 75 61 41
109 103 108 111 111 101 93 90 100 120 110 113 117 114 130 136 132 99 85 77 65 49
105 117 116 115 109 100 102 109 109 72 116 114 103 95 116 132 123 101 98 75 62 34
123 112 110 113 111 106 107 113 94 119 94 92 99 107 123 140 105 90 79 67 45 28
110 110 114 113 115 119 120 116 118 100 99 111 123 113 100 97 94 88 86 66 46 31
116 113 113 113 117 118 116 109 108 109 128 130 121 133 147 101 98 91 80 77 50 24
117 114 111 114 114 110 103 110 117 117 116 111 119 78 60 96 105 88 96 83 99 60
105 108 111 107 107 113 113 120 114 114 115 107 95 69 46 18 84 81 86 68 64 56